This demonstration page uses our WeatherBlox Daily Observations layout. Learn more.

Left ArrowRight Arrow

39.01783, -85.05884

Hourly Observations for November 3, 2020

Temp ( °F °C ) Dew Point ( °F °C ) Humidity (%) Winds ( mph kmh ) Pressure ( in mb ) Visibility ( mi km ) Precip ( " mm )
12:52 am 00:52 Mostly Clear 39 3.9 19 -7.2 45 45 SW 9 15 30.22 1023 10 16.0934 0 0
1:52 am 01:52 Mostly Clear 39 3.9 19 -7.2 45 45 SW 10 17 30.21 1023 10 16.0934 0 0
2:52 am 02:52 Clear 39 3.9 20 -6.7 46 46 SW 8 13 30.21 1023 10 16.0934 0 0
3:52 am 03:52 Clear 38 3.3 20 -6.7 48 48 SW 7 11 30.21 1023 10 16.0934 0 0
4:52 am 04:52 Clear 38 3.3 21 -6.1 51 51 SW 9 15 30.21 1023 10 16.0934 0 0
5:52 am 05:52 Clear 37 2.8 22 -5.6 54 54 SSW 7 11 30.21 1023 10 16.0934 0 0
6:52 am 06:52 Clear 37 2.8 23 -5 57 57 SSW 7 11 30.22 1023 10 16.0934 0 0
7:52 am 07:52 Sunny 38 3.3 24 -4.4 57 57 SSW 6 9 30.23 1024 10 16.0934 0 0
8:52 am 08:52 Sunny 42 5.6 25 -3.9 51 51 SW 10 17 30.25 1025 10 16.0934 0 0
9:52 am 09:52 Sunny 47 8.3 27 -2.8 46 46 SW 10 17 30.25 1024 10 16.0934 0 0
10:52 am 10:52 Sunny 52 11.1 29 -1.7 41 41 W 10 17 30.25 1025 10 16.0934 0 0
11:52 am 11:52 Sunny 56 13.3 31 -0.6 39 39 SW 7 11 30.24 1024 10 16.0934 0 0
12:52 pm 12:52 Sunny 60 15.6 33 0.6 36 36 SSW 12 19 30.22 1023 10 16.0934 0 0
1:52 pm 13:52 Sunny 62 16.7 32 0 32 32 WSW 14 22 30.2 1023 10 16.0934 0 0
2:52 pm 14:52 Sunny 63 17.2 31 -0.6 30 30 SW 9 15 30.2 1023 10 16.0934 0 0
3:52 pm 15:52 Sunny 63 17.2 31 -0.6 30 30 SSW 9 15 30.2 1023 10 16.0934 0 0
4:52 pm 16:52 Sunny 61 16.1 33 0.6 35 35 S 10 17 30.19 1023 10 16.0934 0 0
5:52 pm 17:52 Clear 55 12.8 33 0.6 44 44 SSW 6 9 30.2 1023 10 16.0934 0 0
6:52 pm 18:52 Clear 52 11.1 34 1.1 50 50 S 7 11 30.21 1023 10 16.0934 0 0
7:52 pm 19:52 Clear 51 10.6 33 0.6 50 50 S 7 11 30.23 1024 10 16.0934 0 0
8:52 pm 20:52 Clear 50 10 34 1.1 54 54 S 6 9 30.23 1024 10 16.0934 0 0
9:52 pm 21:52 Clear 48 8.9 33 0.6 56 56 SSW 8 13 30.24 1024 10 16.0934 0 0
10:52 pm 22:52 Clear 46 7.8 34 1.1 63 63 S 7 11 30.25 1024 10 16.0934 0 0
11:52 pm 23:52 Clear 48 8.9 34 1.1 58 58 S 9 15 30.24 1024 10 16.0934 0 0

Powered by AerisWeather